Weather History for KCHA - October, 2013

Change the Weather History Date:

Tuesday, October 1, 2013

  Actual Average Record
Temperature  
Mean Temperature 71 °F 67 °F  
Max Temperature 83 °F 78 °F 90 °F (1941)
Min Temperature 58 °F 56 °F 39 °F (1946)
Degree Days  
Heating Degree Days 0 2  
Month to date heating degree days 0 2  
Since 1 July heating degree days 0 17  
Cooling Degree Days 6 4  
Month to date cooling degree days 6 4  
Year to date cooling degree days 1676 1693  
Growing Degree Days 20 (Base 50)    
Moisture  
Dew Point 61 °F    
Average Humidity 72    
Maximum Humidity 90    
Minimum Humidity 54    
Precipitation  
Precipitation T in 0.12 in 2.58 in (1985)
Month to date precipitation T 0.12  
Year to date precipitation 56.31 39.42  
Snow  
Snow 0.00 in 0.00 in - ()
Month to date snowfall 0.0 0.0  
Since 1 July snowfall 0.0 0.0  
Since 1 September snowfall 0.0 0.0  
Snow Depth 0.00 in    
Sea Level Pressure  
Sea Level Pressure 30.10 in    
Wind  
Wind Speed 1 mph (SSE)    
Max Wind Speed 8 mph    
Max Gust Speed 16 mph    
Visibility 10 miles    
Events      
T = Trace of Precipitation, MM = Missing Value Source: NWS Daily Summary

Daily Weather History Graph

Daily Weather History Graph

Search for Another Location

Airport or City:

Trip Planner

Search our weather history database for the weather conditions in past years. The results will help you decide how hot, cold, wet, or windy it might be!

Date:

Astronomy

Oct. 01, 2013 Rise Set
Actual Time 7:35 AM EDT 7:24 PM EDT
Civil Twilight 7:10 AM EDT 7:49 PM EDT
Nautical Twilight 6:41 AM EDT 8:18 PM EDT
Astronomical Twilight 6:11 AM EDT 8:48 PM EDT
Moon 4:15 AM EDT (10/1) 5:22 PM EDT (10/1)
Length of Visible Light 12h 39m
Length of Day
11h 48m
Waning Crescent, 12% of the Moon is Illuminated
Oct 1
Waning Crescent
Oct 4
New
Oct 11
First Quarter
Oct 18
Full
Oct 26
Last Quarter

Hourly Weather History & Observations

Time (EDT) Temp. Heat Index Dew Point Humidity Pressure Visibility Wind Dir Wind Speed Gust Speed Precip Events Conditions
12:53 AM 62.1 °F - 57.9 °F 86% 30.06 in 10.0 mi Calm Calm - N/A   Clear
1:53 AM 62.1 °F - 57.9 °F 86% 30.06 in 10.0 mi Calm Calm - N/A   Clear
2:53 AM 61.0 °F - 57.0 °F 87% 30.06 in 10.0 mi Calm Calm - N/A   Clear
3:53 AM 59.0 °F - 55.9 °F 90% 30.07 in 9.0 mi Calm Calm - N/A   Scattered Clouds
4:53 AM 61.0 °F - 57.9 °F 90% 30.08 in 10.0 mi Calm Calm - N/A   Overcast
5:44 AM 60.8 °F - 57.2 °F 88% 30.11 in 10.0 mi Calm Calm - N/A   Mostly Cloudy
5:53 AM 62.1 °F - 57.9 °F 86% 30.10 in 10.0 mi Calm Calm - N/A   Mostly Cloudy
6:53 AM 62.1 °F - 59.0 °F 90% 30.12 in 10.0 mi Calm Calm - N/A   Mostly Cloudy
7:53 AM 63.0 °F - 59.0 °F 87% 30.14 in 10.0 mi Calm Calm - N/A   Overcast
8:53 AM 64.0 °F - 59.0 °F 84% 30.15 in 10.0 mi Calm Calm - 0.00 in   Light Drizzle
9:53 AM 64.9 °F - 57.9 °F 78% 30.16 in 10.0 mi Calm Calm - 0.00 in   Mostly Cloudy
10:53 AM 68.0 °F - 60.1 °F 76% 30.17 in 10.0 mi Calm Calm - N/A   Mostly Cloudy
11:53 AM 71.1 °F - 61.0 °F 70% 30.16 in 10.0 mi Variable 4.6 mph - N/A   Mostly Cloudy
12:53 PM 75.9 °F - 63.0 °F 64% 30.14 in 10.0 mi SSW 6.9 mph - N/A   Scattered Clouds
1:53 PM 78.1 °F - 63.0 °F 60% 30.11 in 10.0 mi SW 5.8 mph - N/A   Scattered Clouds
2:53 PM 81.0 °F 81.9 °F 62.1 °F 52% 30.08 in 10.0 mi Variable 5.8 mph - N/A   Mostly Cloudy
3:53 PM 81.0 °F 81.9 °F 62.1 °F 52% 30.06 in 10.0 mi Calm Calm - N/A   Mostly Cloudy
4:53 PM 81.0 °F 81.9 °F 62.1 °F 52% 30.05 in 10.0 mi ESE 3.5 mph - N/A   Scattered Clouds
5:53 PM 79.0 °F - 62.1 °F 56% 30.06 in 10.0 mi SE 3.5 mph - N/A   Scattered Clouds
6:53 PM 78.1 °F - 62.1 °F 58% 30.06 in 10.0 mi SE 3.5 mph - N/A   Scattered Clouds
7:53 PM 75.0 °F - 63.0 °F 66% 30.07 in 10.0 mi Calm Calm - N/A   Scattered Clouds
8:53 PM 72.0 °F - 64.0 °F 76% 30.09 in 10.0 mi Calm Calm - N/A   Mostly Cloudy
9:53 PM 69.1 °F - 64.0 °F 84% 30.11 in 10.0 mi Calm Calm - N/A   Partly Cloudy
10:53 PM 69.1 °F - 64.0 °F 84% 30.12 in 10.0 mi Calm Calm - N/A   Clear
11:53 PM 66.0 °F - 63.0 °F 90% 30.12 in 10.0 mi Calm Calm - N/A   Clear